Search  Advanced
GGBases >  669 Results S W
#Title SizeDate
B M E 49 [170324][ensemble]想いを捧げる乙女のメロディー(有少女献鸣的爱之奏章_沙耶香线)[汉化硬盘版] 3.01G2017-04-20
B M E 167 LOP佐伊的誘惑0.6完全漢化版!!! 1.89G2017-04-19
B M E 75 [AVG][151218][PULLTOP]見上げてごらん、夜空の星/抬头看看吧,看那天上的繁星 繁中汉化版[T_Chinese] 6.18G2017-04-17
B M E 43 [AVG][101015][feng]星空へ架かる橋/架向星空之桥 汉化版[Chinese] 3.76G2017-04-16
B M E 80 [170224][Recette]糖调!\しゅがてん!-sugarfull tempering- [汉化硬盘版] 1.18G2017-04-12
B M E 291 [PSP][萝莉痴女/萝莉ちじょ][中文汉化版] 237M2017-04-07
B M E 67 [AVG][070601][ゆずソフト]Empty × Embryo(E×E/エグゼ)汉化版[Chinese] 2.91G2017-04-06
B M E 179 [161222][あかべぇそふとすりぃ]竜騎士Bloody†Saga [汉化硬盘版(共通线)] 3.34G2017-04-05
B M E 21 [AVG][170324][ウグイスカグラ]水葬銀貨のイストリア/水葬银货的Istria 序章汉化测试版[Chinese] 2.82G2017-04-04
B M E 320 【黙示游戏中文化兴趣小组】[ACT] [160826] [戯画] BALDR HEART -バルドハート- [汉化硬盘版](附修正补丁) 5.93G2017-04-02
B M E 119 [ACT] [160826] [戯画] BALDR HEART -バルドハート- [汉化硬盘版](附修正补丁) 5.93G2017-04-01
B M E 146 [AVG][110527][Moviendo]処女回路 汉化版[Chinese] 548.8M2017-03-30
B M E 105 [AVG][121130][Iris]ないしょのないしょ!/秘密的秘密 汉化版[Chinese] 1.98G2017-03-28
B M E 252 [AVG][110814][NANACAN]妹調教日記 本体 + FD 汉化版[Chinese] 2.66G2017-03-25
B M E 101 [ACT] [160826] [戯画] BALDR HEART -バルドハート- [汉化硬盘版] 5.94G2017-03-25
B M E 30 [160826][戯画] BALDR HEART -バルドハート- [汉化硬盘版] 5.94G2017-03-25
B M E 107 [AVG][120330][ゆずソフト]DRACU-RIOT! 汉化版[Chinese] 3.45G2017-03-23
B M E 27 [AVG][051125][AKABEiSOFT2]車輪の国、向日葵の少女 + 悠久の少年少女 汉化版[Chinese] 2.55G2017-03-22
B M E 494 [AVG][120622][Empress]LEWDNESS~Vita sexualis~汉化版[Chinese] 2.71G2017-03-21
B M E 406 [SLG][120427][Dual Tail]VenusBlood-FRONTIER-汉化版[Chinese] 2.7G2017-03-19
B M E 143 [AVG][121026][Navel]月に寄りそう乙女の作法/近月少女的礼仪 汉化版[Chinese] 5.41G2017-03-17
B M E 106 [AVG][141031][Navel]月に寄りそう乙女の作法2/近月少女的礼仪2 汉化版[Chinese] 5.74G2017-03-16
B M E 77 [AVG][130531][CIRCUS]D.C.III.R_X 汉化版[Chinese] 3.51G2017-03-16
B M E 826 [AVG][091218][Alicesoft]校内赤線区域 原版+機能追加版 汉化版[Chinese] 1.67G2017-03-16
B M E 179 [SLG][100129][XUSE]聖なるかな・外伝 精霊天翔~壊れゆく世界の少女たち~/精灵天翔.迈向毁灭世界的少女们 汉化版[Chinese] 1.64G2017-03-14
B M E 142 [AVG][141128][CYCLET]駄作 汉化版[Chinese] 1.5G2017-03-13
B M E 139 [AVG][150123][BaseSon]きみはね 彼女と彼女の恋する1ヶ月/君羽 她与她相恋的一个月 汉化版[Chinese] 535.2M2017-03-13
B M E 39 [AVG][101125][Key]Little Busters Ex 汉化版[Chinese] 3.45G2017-03-11
B M E 39 [AVG][110224][enterbrain]圣诞之吻:小小惊喜剧场 汉化版[Chinese] 486.4M2017-03-11
B M E 22 [AVG][100625][Key]kud wafter 汉化版[Chinese] 2.24G2017-03-10
B M E 82 [130628][onomatope*]ずっとすきして たくさんすきして\挚爱随行_倾慕相伴 [汉化硬盘版] 2.76G2017-03-09
B M E 340 [AVG][140530]妹寝取り~身も心もお兄ちゃんのモノ~/妹妹寝取~身心都是哥哥的所有物~ 汉化版[Chinese] 735.2M2017-03-09
B M E 23 [170224][Recette]しゅがてん!\糖调!-sugarfull tempering- [汉化硬盘版(共通线)] 1.18G2017-03-05
B M E 84 [AVG][161125][SWEET&TEA]枯れない世界と終わる花/永不枯萎的世界与终结之花 汉化版[Chinese] 4.52G2017-03-03
B M E 94 [AVG][160325][あっぷりけ]時を紡ぐ約束/编织时间的约定 汉化版[Chinese] 3.81G2017-03-02
B M E 22 [AVG][120224][Sugar pot]ツクモノツキ/九十九之月 汉化版[Chinese] 1.1G2017-02-25
B M E 28 [AVG][140328][NanaWind]ALIA's_CARNIVAL 共通线汉化版V1.03b[Chinese] 2.69G2017-02-20
B M E 42 [AVG][140725][FAVORITE]アストラエアの白き永遠/星辰恋曲的白色永恒v2.0 汉化版[Chinese] 5.77G2017-02-19
B M E 30 [AVG][170127][FAVORITE]アストラエアの白き永遠 Finale -白き星の夢-/星辰恋曲的白色永恒-Finale- V1.1 汉化版[Chinese] 4.83G2017-02-17
B M E 58 [AVG][031024][HERMIT]FOLKLORE JAM 汉化版[Chinese] 705.5M2017-02-14
B M E 58 [RPG][011221][Studio e.go!]IZUMO 汉化版[Chinese] 1.06G2017-02-12
B M E 28 [RPG][040730][Studio e.go!]IZUMO2 汉化版[Chinese] 1.1G2017-02-12
B M E 74 [RPG][120224][Studio e.go!]IZUMO2 汉化版[Chinese] 1.45G2017-02-12
B M E 51 [AVG][120727][Latte]第2回妹選抜☆総選挙/第二回妹选拔总选举 汉化版[Chinese] 832.1M2017-02-11
B M E 147 [AVG][19980501][Leaf]WHITE ALBUM/白色相簿 1 原版+重制版 汉化版[Chinese] 1.37G2017-02-10
B M E 136 [AVG][20100326][Leaf]WHITE ALBUM2 /白色相簿 2 汉化版[Chinese] 6.45G2017-02-10
B M E 80 [AVG][120727][Silver Bullet]妹びらいざー!/妹锁 汉化版[Chinese] 3.21G2017-02-09
B M E 105 [AVG][130103][ケロQ]素晴らしき日々 ~不連続存在~ /美好的每一天 ~不连续存在~ 汉化版[Chinese] 3.16G2017-02-07
B M E 104 [AVG][151210][5pb.]Steins;Gate 0/命运石之门 0 日文版 + 正式汉化版V2.4补丁[JP+CN_Patch] 7.52G2017-02-04
B M E 54 [AVG][140530][CUBE]your diary +H 汉化版V1.1[Chinese] 3.84G2017-02-03